^^
Your Local Weather - Clay, NY Station Historical Data
Daily Summary for February 28, 2017 Units:  Metric    English   Both
« Previous Day
Next Day »
Daily Weekly Monthly Yearly Custom
  High: Low: Average:
Temperature: 14.4 °C -0.8 °C 7.6 °C
Dew Point: 5.4 °C -3 °C 1.5 °C
Humidity: 88% 49% 67%
Wind Speed: 11.3km/h 0km/h 3.4km/h
Wind Gust: 29km/h - -
Wind- - ESE
Pressure: 1026.3 hPa 1008.4 hPa -
Precipitation: 0 mm    
Historical Graphs
 
 
Tabular Data for February 28, 2017
Time Temperature Dew Point Pressure Wind Wind Speed Wind Gust Humidity Rainfall Rate (Hourly) solar
00:04 -0.6 °C -2.8 °C 1025.6 hPa Calm     85% 0 mm 0 W/m2
00:10 -0.6 °C -2.8 °C 1025.6 hPa Calm     85% 0 mm 0 W/m2
00:16 -0.7 °C -2.9 °C 1026 hPa Calm     85% 0 mm 0 W/m2
00:22 -0.8 °C -3 °C 1026 hPa Calm     85% 0 mm 0 W/m2
00:28 -0.8 °C -2.9 °C 1026 hPa Calm     86% 0 mm 0 W/m2
00:34 -0.7 °C -2.8 °C 1026 hPa Calm     86% 0 mm 0 W/m2
00:40 -0.6 °C -2.5 °C 1026 hPa Calm     87% 0 mm 0 W/m2
00:46 -0.6 °C -2.4 °C 1026 hPa Calm     87% 0 mm 0 W/m2
00:52 -0.6 °C -2.4 °C 1026 hPa Calm     87% 0 mm 0 W/m2
00:58 -0.6 °C -2.3 °C 1026 hPa Calm     88% 0 mm 0 W/m2
01:06 -0.6 °C -2.3 °C 1026 hPa Calm     88% 0 mm 0 W/m2
01:12 -0.6 °C -2.3 °C 1026 hPa Calm     88% 0 mm 0 W/m2
01:18 -0.4 °C -2.2 °C 1026 hPa Calm     88% 0 mm 0 W/m2
01:24 -0.3 °C -2.1 °C 1026 hPa Calm     88% 0 mm 0 W/m2
01:30 -0.2 °C -1.9 °C 1026.3 hPa Calm     88% 0 mm 0 W/m2
01:36 -0.1 °C -1.8 °C 1026 hPa Calm     88% 0 mm 0 W/m2
01:42 0.1 °C -1.7 °C 1026 hPa Calm     88% 0 mm 0 W/m2
01:48 0.2 °C -1.6 °C 1026 hPa Calm     88% 0 mm 0 W/m2
01:54 0.2 °C -1.6 °C 1026 hPa Calm     88% 0 mm 0 W/m2
02:00 0.3 °C -1.4 °C 1026 hPa Calm     88% 0 mm 0 W/m2
02:06 0.4 °C -1.5 °C 1026 hPa Calm     87% 0 mm 0 W/m2
02:12 0.6 °C -1.5 °C 1026 hPa Calm   1.6 km/h 86% 0 mm 0 W/m2
02:18 0.8 °C -1.6 °C 1026 hPa Calm   3.2 km/h 84% 0 mm 0 W/m2
02:24 1 °C -1.6 °C 1026 hPa Calm   1.6 km/h 83% 0 mm 0 W/m2
02:30 1.1 °C -1.7 °C 1025.6 hPa Calm     82% 0 mm 0 W/m2
02:36 1.2 °C -1.7 °C 1025.6 hPa Calm     81% 0 mm 0 W/m2
02:42 1.2 °C -1.7 °C 1025.3 hPa Calm   1.6 km/h 81% 0 mm 0 W/m2
02:48 1.2 °C -1.7 °C 1025.3 hPa Calm   1.6 km/h 81% 0 mm 0 W/m2
02:54 1.2 °C -1.7 °C 1025.3 hPa Calm     81% 0 mm 0 W/m2
03:00 1.2 °C -1.7 °C 1025.3 hPa Calm     81% 0 mm 0 W/m2
03:06 1.2 °C -1.7 °C 1025.3 hPa Calm     81% 0 mm 0 W/m2
03:12 1.2 °C -1.6 °C 1025.3 hPa Calm     82% 0 mm 0 W/m2
03:18 1.2 °C -1.5 °C 1025.3 hPa Calm     82% 0 mm 0 W/m2
03:24 1.3 °C -1.3 °C 1025.3 hPa Calm   3.2 km/h 83% 0 mm 0 W/m2
03:30 1.3 °C -1.4 °C 1025.3 hPa Calm     82% 0 mm 0 W/m2
03:36 1.3 °C -1.4 °C 1025.3 hPa Calm   1.6 km/h 82% 0 mm 0 W/m2
03:42 1.3 °C -1.4 °C 1025.3 hPa Calm     82% 0 mm 0 W/m2
03:48 1.3 °C -1.4 °C 1025.3 hPa Calm     82% 0 mm 0 W/m2
03:54 1.3 °C -1.4 °C 1025.3 hPa Calm     82% 0 mm 0 W/m2
04:00 1.3 °C -1.3 °C 1025.3 hPa Calm     83% 0 mm 0 W/m2
04:06 1.3 °C -1.3 °C 1025.3 hPa Calm     83% 0 mm 0 W/m2
04:12 1.2 °C -1.2 °C 1025.3 hPa Calm     84% 0 mm 0 W/m2
04:18 1.1 °C -1.3 °C 1025.3 hPa Calm     84% 0 mm 0 W/m2
04:24 1.1 °C -1.1 °C 1025.3 hPa Calm     85% 0 mm 0 W/m2
04:30 1.1 °C -1.1 °C 1025.3 hPa Calm     85% 0 mm 0 W/m2
04:36 1 °C -1.1 °C 1025.3 hPa Calm     86% 0 mm 0 W/m2
04:42 0.9 °C -1.2 °C 1025.3 hPa Calm     86% 0 mm 0 W/m2
04:48 0.8 °C -1.2 °C 1025.3 hPa Calm     86% 0 mm 0 W/m2
04:54 0.8 °C -1.3 °C 1025.3 hPa Calm     86% 0 mm 0 W/m2
05:00 0.7 °C -1.6 °C 1025.3 hPa Calm     85% 0 mm 0 W/m2
05:06 0.7 °C -1.6 °C 1025.3 hPa Calm     85% 0 mm 0 W/m2
05:12 0.8 °C -1.4 °C 1025.3 hPa Calm     85% 0 mm 0 W/m2
05:18 0.9 °C -1.5 °C 1025.3 hPa NE 1.6 km/h 1.6 km/h 84% 0 mm 0 W/m2
05:24 0.9 °C -1.4 °C 1025.3 hPa East 1.6 km/h 3.2 km/h 84% 0 mm 0 W/m2
05:30 1.1 °C -1.4 °C 1025.3 hPa East 3.2 km/h 3.2 km/h 83% 0 mm 0 W/m2
05:36 1.2 °C -1.4 °C 1025.3 hPa East 1.6 km/h 3.2 km/h 83% 0 mm 0 W/m2
05:42 1.2 °C -1.4 °C 1025.3 hPa Calm     83% 0 mm 0 W/m2
05:48 1.1 °C -1.4 °C 1025.3 hPa Calm     83% 0 mm 0 W/m2
05:54 1.1 °C -1.3 °C 1025.3 hPa Calm     84% 0 mm 0 W/m2
06:00 1 °C -1.4 °C 1025.3 hPa Calm     84% 0 mm 0 W/m2
06:06 1 °C -1.6 °C 1025.6 hPa Calm     83% 0 mm 0 W/m2
06:12 1 °C -1.6 °C 1025.3 hPa Calm   1.6 km/h 83% 0 mm 0 W/m2
06:18 1.1 °C -1.3 °C 1025.3 hPa East 1.6 km/h 1.6 km/h 84% 0 mm 0 W/m2
06:24 1.2 °C -1.5 °C 1024.9 hPa ENE 1.6 km/h 3.2 km/h 82% 0 mm 0 W/m2
06:30 1.4 °C -1.4 °C 1024.9 hPa ENE 1.6 km/h 1.6 km/h 81% 0 mm 0 W/m2
06:36 1.5 °C -1.6 °C 1025.3 hPa ENE 1.6 km/h 3.2 km/h 80% 0 mm 0 W/m2
06:40 1.6 °C -1.5 °C 1025.3 hPa ENE 1.6 km/h 3.2 km/h 80% 0 mm 0 W/m2
06:46 1.6 °C -1.5 °C 1025.3 hPa ENE 1.6 km/h 3.2 km/h 80% 0 mm 0 W/m2
06:52 1.7 °C -1.6 °C 1025.3 hPa Calm   1.6 km/h 79% 0 mm 0 W/m2
06:58 1.7 °C -1.6 °C 1025.3 hPa Calm   1.6 km/h 79% 0 mm 0 W/m2
07:04 1.8 °C -1.5 °C 1025.3 hPa ENE 1.6 km/h 1.6 km/h 79% 0 mm 7 W/m2
07:10 1.8 °C -1.4 °C 1025.3 hPa ENE 1.6 km/h 1.6 km/h 79% 0 mm 23 W/m2
07:16 1.9 °C -1.6 °C 1025.3 hPa ENE 1.6 km/h 3.2 km/h 78% 0 mm 37 W/m2
07:22 1.9 °C -1.5 °C 1024.9 hPa ENE 1.6 km/h 1.6 km/h 78% 0 mm 39 W/m2
07:28 2 °C -1.4 °C 1024.9 hPa ENE 1.6 km/h 3.2 km/h 78% 0 mm 35 W/m2
07:34 2.1 °C -1.3 °C 1024.9 hPa ENE 1.6 km/h 3.2 km/h 78% 0 mm 42 W/m2
07:40 2.2 °C -1.3 °C 1024.9 hPa ENE 1.6 km/h 3.2 km/h 78% 0 mm 53 W/m2
07:46 2.3 °C -1.1 °C 1024.6 hPa ENE 1.6 km/h 3.2 km/h 78% 0 mm 70 W/m2
07:52 2.4 °C -1.2 °C 1024.6 hPa ENE 1.6 km/h 3.2 km/h 77% 0 mm 62 W/m2
07:58 2.5 °C -1.1 °C 1024.6 hPa ENE 1.6 km/h 3.2 km/h 77% 0 mm 49 W/m2
08:04 2.6 °C -1.1 °C 1024.6 hPa ENE 1.6 km/h 1.6 km/h 77% 0 mm 51 W/m2
08:10 2.9 °C -0.7 °C 1024.6 hPa Calm     77% 0 mm 120 W/m2
08:16 3.4 °C -0.6 °C 1024.3 hPa Calm   4.8 km/h 75% 0 mm 155 W/m2
08:22 3.8 °C -0.4 °C 1024.3 hPa East 1.6 km/h 1.6 km/h 74% 0 mm 206 W/m2
08:28 4.3 °C -0.1 °C 1024.3 hPa East 3.2 km/h 6.4 km/h 73% 0 mm 171 W/m2
08:30 4.3 °C -0.1 °C 1024.3 hPa ENE 3.2 km/h 4.8 km/h 73% 0 mm 172 W/m2
08:36 4.7 °C 0.2 °C 1024.3 hPa East 1.6 km/h 4.8 km/h 73% 0 mm 207 W/m2
08:42 5.3 °C 0.6 °C 1024.3 hPa SE 3.2 km/h 6.4 km/h 72% 0 mm 299 W/m2
08:48 5.6 °C 0.8 °C 1024.3 hPa SE 3.2 km/h 6.4 km/h 71% 0 mm 295 W/m2
08:54 5.9 °C 0.6 °C 1024.3 hPa East 3.2 km/h 3.2 km/h 69% 0 mm 311 W/m2
09:00 6 °C 0.9 °C 1024.3 hPa SE 3.2 km/h 6.4 km/h 70% 0 mm 285 W/m2
09:06 6.2 °C 1.1 °C 1023.9 hPa NE 4.8 km/h 6.4 km/h 70% 0 mm 285 W/m2
09:12 6.3 °C 1 °C 1023.9 hPa East 4.8 km/h 4.8 km/h 69% 0 mm 236 W/m2
09:18 6.6 °C 1.3 °C 1023.9 hPa East 3.2 km/h 8 km/h 69% 0 mm 308 W/m2
09:24 6.7 °C 1.2 °C 1023.6 hPa ENE 3.2 km/h 4.8 km/h 68% 0 mm 258 W/m2
09:30 6.7 °C 1.2 °C 1023.6 hPa ENE 3.2 km/h 3.2 km/h 68% 0 mm 315 W/m2
09:36 7 °C 1.5 °C 1023.6 hPa ENE 4.8 km/h 6.4 km/h 68% 0 mm 271 W/m2
09:42 7.1 °C 1.6 °C 1023.2 hPa ENE 3.2 km/h 3.2 km/h 68% 0 mm 265 W/m2
09:48 7.1 °C 1.4 °C 1023.6 hPa East 4.8 km/h 4.8 km/h 67% 0 mm 258 W/m2
09:54 7.3 °C 1.6 °C 1023.6 hPa ESE 4.8 km/h 4.8 km/h 67% 0 mm 250 W/m2
10:00 7.4 °C 1.5 °C 1023.9 hPa SSE 3.2 km/h 4.8 km/h 66% 0 mm 225 W/m2
10:06 7.5 °C 1.9 °C 1023.6 hPa ESE 3.2 km/h 4.8 km/h 68% 0 mm 274 W/m2
10:12 8.1 °C 2.1 °C 1023.6 hPa SE 1.6 km/h 6.4 km/h 66% 0 mm 432 W/m2
10:18 8.3 °C 1.9 °C 1023.2 hPa ENE 3.2 km/h 6.4 km/h 64% 0 mm 406 W/m2
10:24 8.5 °C 1.8 °C 1023.2 hPa NE 3.2 km/h 8 km/h 63% 0 mm 387 W/m2
10:30 8.6 °C 2.4 °C 1023.2 hPa SE 4.8 km/h 4.8 km/h 65% 0 mm 287 W/m2
10:36 8.7 °C 2.3 °C 1023.2 hPa SE 3.2 km/h 4.8 km/h 64% 0 mm 313 W/m2
10:42 8.8 °C 1.9 °C 1022.9 hPa ENE 3.2 km/h 4.8 km/h 62% 0 mm 299 W/m2
10:48 8.8 °C 2.8 °C 1022.9 hPa ENE 3.2 km/h 4.8 km/h 66% 0 mm 322 W/m2
10:54 8.9 °C 2 °C 1023.2 hPa ENE 3.2 km/h 6.4 km/h 62% 0 mm 415 W/m2
11:00 8.6 °C 1.9 °C 1022.6 hPa ENE 6.4 km/h 6.4 km/h 63% 0 mm 294 W/m2
11:06 8.9 °C 2 °C 1022.6 hPa ENE 4.8 km/h 6.4 km/h 62% 0 mm 429 W/m2
11:12 9.3 °C 2.8 °C 1022.6 hPa ENE 4.8 km/h 4.8 km/h 64% 0 mm 526 W/m2
11:18 9.6 °C 2.2 °C 1022.6 hPa East 3.2 km/h 4.8 km/h 60% 0 mm 524 W/m2
11:24 9.7 °C 2.8 °C 1022.6 hPa SE 4.8 km/h 6.4 km/h 62% 0 mm 501 W/m2
11:30 9.8 °C 2.4 °C 1022.2 hPa ENE 4.8 km/h 4.8 km/h 60% 0 mm 445 W/m2
11:36 9.9 °C 2.8 °C 1022.2 hPa SE 6.4 km/h 12.9 km/h 61% 0 mm 445 W/m2
11:42 10.6 °C 2.6 °C 1021.9 hPa ENE 4.8 km/h 4.8 km/h 58% 0 mm 489 W/m2
11:48 10.4 °C 3.2 °C 1021.6 hPa East 4.8 km/h 4.8 km/h 61% 0 mm 427 W/m2
11:54 10.4 °C 3.2 °C 1021.6 hPa East 4.8 km/h 8 km/h 61% 0 mm 411 W/m2
12:00 10.6 °C 3.4 °C 1021.6 hPa ESE 4.8 km/h 4.8 km/h 61% 0 mm 418 W/m2
12:06 10.6 °C 2.7 °C 1021.2 hPa East 4.8 km/h 8 km/h 58% 0 mm 371 W/m2
12:12 10.8 °C 3.1 °C 1021.2 hPa ESE 4.8 km/h 4.8 km/h 59% 0 mm 359 W/m2
12:18 10.7 °C 3.3 °C 1020.9 hPa ENE 4.8 km/h 8 km/h 60% 0 mm 345 W/m2
12:24 10.7 °C 3 °C 1020.5 hPa ENE 4.8 km/h 11.3 km/h 59% 0 mm 380 W/m2
12:30 10.6 °C 3.8 °C 1020.9 hPa ENE 6.4 km/h 6.4 km/h 63% 0 mm 543 W/m2
12:36 10.9 °C 3 °C 1020.5 hPa ENE 6.4 km/h 9.7 km/h 58% 0 mm 536 W/m2
12:42 11.2 °C 3.3 °C 1020.2 hPa East 6.4 km/h 16.1 km/h 58% 0 mm 584 W/m2
12:48 11.6 °C 3.6 °C 1019.9 hPa ENE 6.4 km/h 16.1 km/h 58% 0 mm 686 W/m2
12:54 11.7 °C 3.2 °C 1019.5 hPa ENE 6.4 km/h 6.4 km/h 56% 0 mm 267 W/m2
13:00 11.7 °C 3.4 °C 1019.5 hPa East 4.8 km/h 12.9 km/h 57% 0 mm 371 W/m2
13:06 11.4 °C 2.4 °C 1018.8 hPa East 8 km/h 12.9 km/h 54% 0 mm 320 W/m2
13:12 11.4 °C 2.7 °C 1018.5 hPa NNE 8 km/h 12.9 km/h 55% 0 mm 297 W/m2
13:18 11.6 °C 3.1 °C 1018.5 hPa East 8 km/h 12.9 km/h 56% 0 mm 292 W/m2
13:24 11.4 °C 2.7 °C 1017.8 hPa NE 8 km/h 9.7 km/h 55% 0 mm 251 W/m2
13:30 11.4 °C 2.4 °C 1017.5 hPa East 8 km/h 8 km/h 54% 0 mm 221 W/m2
13:36 11.2 °C 2.7 °C 1018.2 hPa ENE 6.4 km/h 8 km/h 56% 0 mm 160 W/m2
13:42 11.1 °C 2.3 °C 1018.2 hPa ENE 4.8 km/h 8 km/h 55% 0 mm 171 W/m2
13:48 11.1 °C 2.1 °C 1018.5 hPa ENE 4.8 km/h 8 km/h 54% 0 mm 237 W/m2
13:54 11.2 °C 2.8 °C 1018.2 hPa ENE 4.8 km/h 14.5 km/h 56% 0 mm 308 W/m2
14:00 11.6 °C 2.9 °C 1017.8 hPa NNE 6.4 km/h 8 km/h 55% 0 mm 362 W/m2
14:06 11.8 °C 2.6 °C 1017.8 hPa ENE 6.4 km/h 11.3 km/h 53% 0 mm 371 W/m2
14:12 11.7 °C 2.4 °C 1017.5 hPa East 8 km/h 9.7 km/h 53% 0 mm 251 W/m2
14:18 11.9 °C 2.9 °C 1017.5 hPa ENE 6.4 km/h 9.7 km/h 54% 0 mm 292 W/m2
14:24 12.2 °C 2.8 °C 1017.5 hPa SE 4.8 km/h 12.9 km/h 53% 0 mm 390 W/m2
14:30 12.6 °C 2.9 °C 1017.5 hPa ENE 4.8 km/h 4.8 km/h 52% 0 mm 338 W/m2
14:36 12.6 °C 3.3 °C 1017.2 hPa ENE 4.8 km/h 4.8 km/h 53% 0 mm 288 W/m2
14:42 12.7 °C 3.1 °C 1016.8 hPa ENE 4.8 km/h 4.8 km/h 52% 0 mm 220 W/m2
14:48 12.7 °C 3.1 °C 1016.8 hPa ESE 4.8 km/h 6.4 km/h 52% 0 mm 234 W/m2
14:54 13.1 °C 3.4 °C 1016.1 hPa ENE 4.8 km/h 6.4 km/h 52% 0 mm 269 W/m2
15:00 13 °C 3.4 °C 1016.1 hPa ESE 4.8 km/h 4.8 km/h 52% 0 mm 207 W/m2
15:06 13 °C 3.4 °C 1016.1 hPa NE 4.8 km/h 4.8 km/h 52% 0 mm 162 W/m2
15:12 13.1 °C 3.7 °C 1016.1 hPa East 3.2 km/h 4.8 km/h 53% 0 mm 102 W/m2
15:18 13 °C 3.6 °C 1016.5 hPa ESE 1.6 km/h 4.8 km/h 53% 0 mm 107 W/m2
15:24 12.9 °C 3.6 °C 1016.1 hPa North 1.6 km/h 4.8 km/h 53% 0 mm 121 W/m2
15:30 12.7 °C 3.3 °C 1016.1 hPa ENE 3.2 km/h 3.2 km/h 53% 0 mm 102 W/m2
15:36 12.4 °C 3.4 °C 1016.5 hPa NE 4.8 km/h 4.8 km/h 54% 0 mm 86 W/m2
15:42 12.2 °C 3.4 °C 1016.1 hPa ENE 3.2 km/h 4.8 km/h 55% 0 mm 70 W/m2
15:48 12 °C 3.2 °C 1015.8 hPa NE 3.2 km/h 6.4 km/h 55% 0 mm 69 W/m2
15:54 11.9 °C 3.4 °C 1015.8 hPa East 4.8 km/h 8 km/h 56% 0 mm 60 W/m2
16:00 11.6 °C 3.1 °C 1015.8 hPa East 4.8 km/h 4.8 km/h 56% 0 mm 67 W/m2
16:06 11.4 °C 3.4 °C 1015.5 hPa NE 4.8 km/h 4.8 km/h 58% 0 mm 63 W/m2
16:12 11.3 °C 3.1 °C 1015.5 hPa ESE 4.8 km/h 4.8 km/h 57% 0 mm 53 W/m2
16:18 11.3 °C 3.3 °C 1015.1 hPa ENE 4.8 km/h 12.9 km/h 58% 0 mm 42 W/m2
16:24 11.2 °C 3 °C 1015.1 hPa NE 6.4 km/h 8 km/h 57% 0 mm 42 W/m2
16:30 11.2 °C 3.2 °C 1014.8 hPa East 6.4 km/h 6.4 km/h 58% 0 mm 42 W/m2
16:36 11.2 °C 3.2 °C 1014.8 hPa NE 6.4 km/h 6.4 km/h 58% 0 mm 32 W/m2
16:42 11.1 °C 3.2 °C 1014.4 hPa East 6.4 km/h 8 km/h 58% 0 mm 32 W/m2
16:48 11.1 °C 3.3 °C 1014.1 hPa East 4.8 km/h 8 km/h 59% 0 mm 26 W/m2
16:54 11.1 °C 3.4 °C 1014.1 hPa East 4.8 km/h 4.8 km/h 59% 0 mm 26 W/m2
17:00 11.1 °C 3.2 °C 1014.1 hPa ESE 6.4 km/h 6.4 km/h 58% 0 mm 23 W/m2
17:06 11.1 °C 3.4 °C 1014.1 hPa East 6.4 km/h 8 km/h 59% 0 mm 19 W/m2
17:12 11.1 °C 3.3 °C 1014.1 hPa ENE 4.8 km/h 6.4 km/h 59% 0 mm 11 W/m2
17:20 11.1 °C 3.3 °C 1014.1 hPa East 3.2 km/h 3.2 km/h 59% 0 mm 9 W/m2
17:26 11 °C 3.3 °C 1014.1 hPa East 3.2 km/h 3.2 km/h 59% 0 mm 9 W/m2
17:32 10.9 °C 3.5 °C 1013.8 hPa East 3.2 km/h 4.8 km/h 60% 0 mm 7 W/m2
17:38 10.9 °C 3.5 °C 1013.8 hPa ENE 3.2 km/h 4.8 km/h 60% 0 mm 5 W/m2
17:44 10.9 °C 3.2 °C 1013.8 hPa ENE 3.2 km/h 8 km/h 59% 0 mm 0 W/m2
17:50 11 °C 3.5 °C 1013.4 hPa ENE 4.8 km/h 4.8 km/h 60% 0 mm 0 W/m2
17:56 10.9 °C 3.5 °C 1013.8 hPa ENE 3.2 km/h 4.8 km/h 60% 0 mm 0 W/m2
18:02 10.9 °C 3.5 °C 1013.8 hPa East 3.2 km/h 3.2 km/h 60% 0 mm 0 W/m2
18:08 10.9 °C 3.7 °C 1013.4 hPa ENE 3.2 km/h 6.4 km/h 61% 0 mm 0 W/m2
18:14 10.9 °C 3.7 °C 1013.4 hPa SE 3.2 km/h 8 km/h 61% 0 mm 0 W/m2
18:20 10.9 °C 3.7 °C 1013.4 hPa North 3.2 km/h 3.2 km/h 61% 0 mm 0 W/m2
18:26 10.9 °C 3.7 °C 1013.4 hPa ENE 1.6 km/h 3.2 km/h 61% 0 mm 0 W/m2
18:32 10.8 °C 3.6 °C 1013.1 hPa ENE 1.6 km/h 3.2 km/h 61% 0 mm 0 W/m2
18:40 10.8 °C 3.6 °C 1013.1 hPa ENE 1.6 km/h 3.2 km/h 61% 0 mm 0 W/m2
18:46 10.7 °C 3.9 °C 1013.1 hPa ENE 1.6 km/h 3.2 km/h 63% 0 mm 0 W/m2
18:52 10.6 °C 3.8 °C 1013.1 hPa Calm   1.6 km/h 63% 0 mm 0 W/m2
18:58 10.4 °C 3.7 °C 1013.1 hPa Calm   3.2 km/h 63% 0 mm 0 W/m2
19:04 10.6 °C 3.8 °C 1013.1 hPa Calm     63% 0 mm 0 W/m2
19:10 10.7 °C 3.7 °C 1013.1 hPa Calm     62% 0 mm 0 W/m2
19:16 10.6 °C 4.3 °C 1013.1 hPa Calm     65% 0 mm 0 W/m2
19:22 10.4 °C 4.3 °C 1013.1 hPa Calm     66% 0 mm 0 W/m2
19:28 10.2 °C 4.3 °C 1013.1 hPa Calm     67% 0 mm 0 W/m2
19:34 10.1 °C 4 °C 1012.8 hPa Calm     66% 0 mm 0 W/m2
19:40 9.9 °C 4.3 °C 1012.8 hPa Calm     68% 0 mm 0 W/m2
19:46 9.7 °C 4.1 °C 1012.4 hPa ESE 1.6 km/h 3.2 km/h 68% 0 mm 0 W/m2
19:52 9.7 °C 4.3 °C 1012.4 hPa ESE 1.6 km/h 1.6 km/h 69% 0 mm 0 W/m2
19:58 9.7 °C 4.1 °C 1012.1 hPa Calm   1.6 km/h 68% 0 mm 0 W/m2
20:04 9.9 °C 4.1 °C 1012.1 hPa Calm     67% 0 mm 0 W/m2
20:10 10.1 °C 3.4 °C 1011.7 hPa South 1.6 km/h 6.4 km/h 63% 0 mm 0 W/m2
20:16 12.2 °C 3.4 °C 1011.4 hPa South 3.2 km/h 6.4 km/h 55% 0 mm 0 W/m2
20:22 13.3 °C 3.4 °C 1011.4 hPa ESE 4.8 km/h 6.4 km/h 51% 0 mm 0 W/m2
20:28 13.9 °C 3.3 °C 1011.4 hPa SE 6.4 km/h 9.7 km/h 49% 0 mm 0 W/m2
20:36 14.1 °C 3.5 °C 1011.1 hPa SSE 8 km/h 8 km/h 49% 0 mm 0 W/m2
20:42 14.1 °C 3.6 °C 1011.1 hPa South 8 km/h 9.7 km/h 49% 0 mm 0 W/m2
20:48 14.1 °C 3.6 °C 1011.1 hPa SSW 6.4 km/h 9.7 km/h 49% 0 mm 0 W/m2
20:54 14.2 °C 3.6 °C 1011.1 hPa SW 4.8 km/h 6.4 km/h 49% 0 mm 0 W/m2
21:00 14.2 °C 3.9 °C 1011.1 hPa SSW 4.8 km/h 9.7 km/h 50% 0 mm 0 W/m2
21:06 14.1 °C 4.1 °C 1010.7 hPa SSW 6.4 km/h 9.7 km/h 51% 0 mm 0 W/m2
21:12 14.2 °C 3.9 °C 1010.7 hPa South 6.4 km/h 9.7 km/h 50% 0 mm 0 W/m2
21:18 14.3 °C 4 °C 1010.7 hPa SSW 8 km/h 16.1 km/h 50% 0 mm 0 W/m2
21:24 14.2 °C 4.2 °C 1010.4 hPa South 6.4 km/h 14.5 km/h 51% 0 mm 0 W/m2
21:30 14.2 °C 4.2 °C 1010.4 hPa SSW 4.8 km/h 4.8 km/h 51% 0 mm 0 W/m2
21:36 14.3 °C 4.1 °C 1010.4 hPa SSW 6.4 km/h 9.7 km/h 50% 0 mm 0 W/m2
21:42 14.4 °C 4.1 °C 1010.4 hPa SSW 9.7 km/h 11.3 km/h 50% 0 mm 0 W/m2
21:48 14.3 °C 4.1 °C 1010.4 hPa SSW 9.7 km/h 14.5 km/h 50% 0 mm 0 W/m2
21:54 14.3 °C 4.1 °C 1010 hPa SSW 9.7 km/h 11.3 km/h 50% 0 mm 0 W/m2
22:00 14.3 °C 4.3 °C 1010 hPa South 11.3 km/h 12.9 km/h 51% 0 mm 0 W/m2
22:06 14.3 °C 4.3 °C 1009.7 hPa South 8 km/h 12.9 km/h 51% 0 mm 0 W/m2
22:12 14.3 °C 4.3 °C 1009.7 hPa South 8 km/h 8 km/h 51% 0 mm 0 W/m2
22:18 14.2 °C 4.2 °C 1009.4 hPa South 8 km/h 8 km/h 51% 0 mm 0 W/m2
22:24 14.2 °C 4.4 °C 1009.4 hPa SSE 8 km/h 9.7 km/h 52% 0 mm 0 W/m2
22:30 14.2 °C 4.4 °C 1009.4 hPa SSW 6.4 km/h 9.7 km/h 52% 0 mm 0 W/m2
22:36 14.2 °C 4.5 °C 1009.4 hPa South 9.7 km/h 29 km/h 52% 0 mm 0 W/m2
22:42 14.2 °C 4.4 °C 1009.4 hPa SSE 9.7 km/h 14.5 km/h 52% 0 mm 0 W/m2
22:48 14.3 °C 4.6 °C 1009 hPa SSW 9.7 km/h 17.7 km/h 52% 0 mm 0 W/m2
22:54 14.2 °C 4.5 °C 1009 hPa South 9.7 km/h 12.9 km/h 52% 0 mm 0 W/m2
23:00 14.1 °C 4.4 °C 1009 hPa SSE 8 km/h 8 km/h 52% 0 mm 0 W/m2
23:06 14.1 °C 4.6 °C 1009 hPa South 8 km/h 11.3 km/h 53% 0 mm 0 W/m2
23:12 14.1 °C 4.7 °C 1008.7 hPa SSW 8 km/h 11.3 km/h 53% 0 mm 0 W/m2
23:18 14.2 °C 5 °C 1008.7 hPa South 9.7 km/h 14.5 km/h 54% 0 mm 0 W/m2
23:24 14.1 °C 4.9 °C 1008.7 hPa SSE 6.4 km/h 8 km/h 54% 0 mm 0 W/m2
23:30 14 °C 5.1 °C 1008.7 hPa South 6.4 km/h 6.4 km/h 55% 0 mm 0 W/m2
23:36 14 °C 5.1 °C 1008.7 hPa SW 6.4 km/h 8 km/h 55% 0 mm 0 W/m2
23:42 14.1 °C 5.2 °C 1008.7 hPa South 9.7 km/h 11.3 km/h 55% 0 mm 0 W/m2
23:48 14.1 °C 5.4 °C 1008.4 hPa SW 8 km/h 11.3 km/h 56% 0 mm 0 W/m2
23:54 14.1 °C 5.4 °C 1008.4 hPa South 6.4 km/h 11.3 km/h 56% 0 mm 0 W/m2
Country Meadow, Clay, NY, USA
Compliments of Weather Underground - 2 mb